Theta_e
309 309 309 309 309 309 309 309 310 310 310 310 309 309 309 308 308 308 308 308 308 309 309 309 309 309 310 310 311 310 308 309 313 316 317 317 317 315 313 313 312 310 308 310 313 315 316 315 315 317 315 315 314 314 315 314 316 316 316 314 312 313 314 315 317 317 316 317 318 318 318 317 317 318 319 321 320 320 320 321 331 335 339 340 340 344 346 346
309 309 309 309 310 310 310 310 310 310 310 310 310 310 310 310 309 308 308 308 308 309 309 309 309 309 310 310 310 309 309 313 316 316 316 316 317 316 313 311 310 309 307 310 313 315 317 315 315 315 314 314 314 314 314 314 315 315 316 313 312 315 316 317 319 318 317 317 317 318 318 318 318 318 320 322 322 322 320 321 333 338 341 343 345 346 346 346
309 309 309 309 310 310 310 310 310 310 310 310 310 311 311 310 310 310 309 309 308 309 309 309 309 309 310 310 309 308 311 315 317 318 317 315 315 316 314 310 309 307 307 311 312 315 316 315 315 314 314 313 313 314 313 314 316 315 315 314 314 316 316 318 317 317 317 316 317 317 317 318 317 318 321 323 323 321 320 319 330 339 341 342 343 344 345 345
309 309 309 310 310 310 310 310 310 310 311 311 311 311 311 311 311 310 310 309 309 309 309 309 309 309 309 309 308 309 313 318 320 320 319 318 315 313 313 310 307 306 308 311 313 314 316 314 315 314 313 313 313 313 313 315 316 315 314 314 315 316 316 317 317 316 317 317 316 316 316 317 317 319 321 322 322 321 321 318 326 337 340 341 341 343 344 344
308 308 309 309 309 310 310 310 311 310 311 311 311 311 312 312 311 311 311 309 309 309 309 308 309 309 308 308 307 310 317 321 321 320 318 317 315 313 312 309 306 307 308 311 314 316 316 315 315 314 313 312 313 313 314 314 315 315 314 315 315 315 315 317 317 316 317 316 315 316 316 316 318 319 319 321 322 321 325 325 321 331 335 338 340 342 343 343
307 308 308 308 309 309 310 310 311 311 311 311 311 312 312 312 312 311 310 309 309 309 308 308 308 308 307 305 307 312 318 322 321 318 315 313 313 312 312 308 306 307 309 312 316 317 315 315 313 312 312 312 312 314 313 315 315 314 314 316 315 315 316 316 316 316 315 316 316 316 316 317 318 317 319 321 322 322 330 332 327 330 334 337 340 342 342 342
307 307 307 307 308 308 309 310 310 311 311 311 311 312 312 311 311 311 310 310 309 308 308 308 308 308 306 305 311 315 318 322 320 316 313 311 309 310 310 308 305 308 312 315 316 316 314 313 312 312 312 312 312 313 314 315 314 314 314 314 315 315 316 315 316 316 315 316 315 316 317 317 316 318 321 321 321 325 330 331 331 331 334 336 339 341 343 342
307 307 307 307 308 308 308 309 309 310 310 310 311 311 311 311 311 310 310 309 309 307 307 308 308 306 304 308 316 319 320 322 319 314 311 309 308 309 309 307 308 311 314 316 317 314 312 312 312 312 312 312 313 314 315 315 314 314 314 314 315 315 315 316 315 315 315 315 316 316 316 316 317 319 321 321 321 325 329 329 331 331 333 338 340 342 343 343
307 306 306 307 308 307 308 308 309 309 310 310 310 310 311 311 310 310 309 309 308 306 306 306 307 305 305 311 317 320 321 319 317 313 309 308 308 308 308 310 311 313 315 316 317 314 313 312 312 312 312 312 313 313 314 314 314 314 314 314 314 314 316 315 315 315 315 316 316 316 316 317 318 319 320 323 322 323 326 325 328 330 331 336 340 343 345 344
307 307 307 307 307 307 308 308 308 309 309 309 309 310 310 310 310 309 309 309 307 305 305 306 306 306 309 314 318 321 318 315 315 312 311 310 309 309 310 313 312 314 316 316 315 314 313 312 313 313 313 313 314 314 314 313 314 314 314 314 314 314 315 315 315 315 315 316 316 316 316 318 318 319 321 324 322 322 323 324 326 328 329 333 339 342 344 344
307 307 307 307 307 307 307 307 307 308 309 309 309 309 309 309 309 309 309 308 306 306 306 307 307 308 313 317 319 323 314 314 315 311 312 311 310 311 313 314 313 315 316 315 315 314 313 313 314 315 313 312 313 314 314 314 314 314 314 315 314 314 314 315 315 316 315 316 317 316 316 319 318 318 322 323 322 321 321 324 326 326 328 330 336 340 341 343
307 307 307 307 308 307 305 305 306 308 308 309 308 308 308 308 308 309 308 307 307 306 306 308 307 309 316 318 321 322 312 314 314 312 313 312 312 313 315 316 314 314 316 314 313 313 314 315 315 314 313 313 314 314 313 314 314 314 314 314 314 315 314 314 315 315 315 315 316 316 315 317 318 317 322 322 322 321 321 323 323 324 328 329 333 337 338 340
307 307 308 308 308 307 304 305 307 308 309 308 308 307 307 307 308 308 307 306 306 307 307 307 307 311 317 321 323 318 313 313 313 314 313 313 314 314 316 316 313 314 315 315 313 314 314 315 314 313 314 314 314 314 314 315 314 314 314 314 313 314 313 314 315 315 315 315 317 316 312 314 318 318 321 323 321 322 321 322 321 319 326 329 334 335 335 337
307 308 308 308 307 306 305 306 308 309 310 309 309 308 307 306 306 308 308 307 306 307 307 305 307 314 319 323 320 312 315 314 313 313 313 314 315 315 315 314 315 316 315 315 314 314 314 314 314 313 314 315 315 315 314 314 314 314 313 313 312 310 311 316 316 315 315 315 317 316 310 312 318 318 321 322 321 322 320 321 321 321 327 331 334 334 332 332
308 308 308 307 307 305 306 307 308 309 309 310 309 307 306 306 306 307 308 308 307 305 305 307 309 315 323 325 318 312 315 313 312 313 312 314 314 314 313 312 315 315 314 314 314 315 313 314 313 313 314 314 314 314 314 315 314 315 311 310 312 309 311 316 315 315 315 315 317 316 310 313 318 318 319 320 320 321 321 320 321 324 329 330 331 332 331 329
308 308 307 307 306 305 307 308 308 308 309 309 308 305 305 308 310 309 309 308 306 305 307 313 315 317 322 322 316 313 312 314 314 313 312 314 313 313 312 313 313 313 314 313 313 314 314 314 314 313 314 314 314 313 313 313 312 315 312 308 311 309 310 314 315 316 316 315 316 315 312 314 317 317 318 319 319 319 319 320 323 325 325 325 327 330 331 330
308 308 307 307 305 305 307 307 306 307 308 309 307 307 309 312 313 313 311 307 306 308 310 316 319 319 322 319 315 313 312 315 314 312 313 313 313 313 312 313 313 313 313 313 314 314 313 314 313 314 315 315 315 313 312 309 309 313 312 310 312 312 310 311 314 316 316 316 316 316 315 314 317 318 318 318 317 318 318 319 322 327 327 327 330 333 336 337
308 307 306 305 305 305 305 304 305 306 307 307 308 311 313 314 312 313 313 310 311 314 314 316 317 318 320 318 317 314 313 316 314 313 314 313 314 314 314 313 313 313 313 313 313 313 314 313 313 315 314 314 315 314 311 310 312 312 312 310 310 312 312 311 314 316 316 316 315 316 315 315 318 317 318 318 317 317 318 319 320 327 331 333 336 336 338 343
307 306 305 304 302 301 301 302 303 305 306 308 311 315 317 316 315 315 316 315 316 317 316 318 318 318 319 318 318 316 315 316 314 314 314 313 314 314 314 314 314 314 313 313 314 313 314 314 314 314 314 315 315 314 314 315 316 315 315 312 310 311 311 314 316 316 317 316 316 316 314 315 317 317 318 317 317 317 318 320 321 324 331 333 334 335 335 339
307 306 303 301 298 298 299 300 303 305 305 309 314 320 321 322 323 322 320 319 319 317 315 318 317 316 317 317 317 316 316 315 314 315 315 314 314 314 314 314 314 314 313 314 315 315 315 315 315 314 316 319 318 318 320 319 318 318 317 315 312 311 311 315 318 316 317 316 315 316 316 316 317 317 318 317 318 318 317 320 321 320 327 331 332 335 334 334
307 305 302 298 298 298 298 299 303 304 305 309 315 321 325 322 320 320 319 319 320 320 317 317 317 316 316 317 318 316 316 314 314 315 315 315 314 313 314 313 314 314 314 315 316 317 316 315 315 316 320 321 320 321 320 320 319 318 316 314 312 313 313 316 317 317 317 317 316 317 316 316 317 317 318 318 317 317 316 319 320 319 321 325 328 335 335 332
307 304 302 300 298 298 300 301 302 304 307 312 316 320 322 317 316 317 317 317 319 319 317 316 317 315 315 318 318 317 316 314 313 314 315 315 313 313 313 313 313 314 315 314 316 317 316 314 314 317 320 320 319 320 319 319 318 317 316 313 311 312 313 317 319 317 318 316 315 317 316 316 318 317 317 318 317 318 318 318 320 320 320 320 321 332 334 332
307 306 303 301 300 300 303 303 303 305 307 314 319 320 319 317 315 316 317 317 318 319 316 315 316 316 315 317 317 316 315 314 314 314 315 315 313 314 314 313 313 313 314 315 315 314 313 315 316 317 319 319 318 318 318 317 316 316 315 311 310 312 313 312 317 319 317 316 316 317 315 316 319 318 317 319 318 319 319 318 320 319 320 321 319 328 333 333
307 307 305 302 301 303 305 305 305 305 307 314 318 318 318 316 315 317 318 319 320 320 318 315 315 314 315 316 317 315 315 315 315 314 315 314 313 314 313 314 313 313 314 315 316 314 313 315 318 317 317 317 316 316 317 316 314 315 316 313 311 313 313 313 317 319 318 319 319 317 314 315 317 317 316 319 318 318 318 317 319 318 318 321 322 326 333 335
305 307 306 303 303 304 305 306 307 309 312 316 318 318 317 315 317 317 319 321 321 321 319 316 315 314 314 316 317 314 314 316 316 316 316 313 313 314 313 313 313 313 313 314 314 314 314 317 318 317 316 316 315 316 317 317 314 313 316 316 314 315 316 316 318 318 316 316 319 318 313 312 315 315 317 317 317 317 318 317 317 318 318 318 321 324 330 335
304 306 308 305 304 304 306 311 315 315 316 318 318 318 315 316 318 318 321 325 323 320 317 316 314 314 315 316 315 315 315 316 317 316 316 314 315 314 314 314 313 313 314 314 314 314 315 316 316 316 316 316 316 315 316 319 314 312 316 317 317 317 317 316 317 315 314 314 318 319 314 311 312 314 317 317 316 317 318 319 317 317 318 316 319 321 322 331
303 305 307 307 304 305 310 316 316 313 314 316 318 316 315 318 318 319 324 325 323 320 315 313 313 314 316 317 316 315 315 317 316 315 315 315 315 315 314 315 314 313 314 315 313 313 315 316 316 316 316 316 315 314 316 318 314 314 317 318 316 317 317 317 316 314 314 314 316 317 314 312 311 313 317 317 316 318 317 319 318 317 317 316 318 320 320 323
302 303 307 309 305 304 309 311 310 310 312 315 316 316 316 317 318 322 326 324 322 318 315 313 313 314 315 316 316 314 315 316 315 316 316 315 314 315 314 313 313 314 314 314 311 313 316 316 316 316 315 315 314 314 316 316 315 316 318 317 317 318 317 316 314 313 314 314 312 313 314 312 311 313 317 317 315 316 318 318 318 316 317 318 318 318 319 321
302 302 305 310 307 303 304 305 308 309 309 312 314 316 316 316 319 323 325 325 321 314 316 315 314 315 315 316 315 314 315 315 315 315 316 315 314 314 313 314 314 313 314 314 312 314 316 315 316 315 315 315 314 315 316 316 317 317 318 317 317 317 317 316 315 312 313 314 311 312 312 312 311 312 314 315 314 315 318 318 318 317 317 318 319 320 319 320
302 301 304 308 308 307 308 308 311 311 308 311 315 316 316 317 321 324 323 323 318 314 316 314 313 315 316 315 315 315 315 315 315 315 315 315 314 314 314 314 314 314 315 314 313 314 315 315 315 315 314 314 315 315 315 315 317 317 317 317 316 316 316 316 314 312 313 314 313 312 313 312 312 312 312 314 315 316 318 318 317 318 318 318 320 320 319 319
302 301 303 307 310 314 317 316 317 316 314 315 316 316 317 319 323 324 323 321 316 316 314 313 314 315 315 315 314 315 315 315 314 314 314 314 314 313 313 314 314 313 313 314 313 313 314 314 314 313 313 313 314 314 314 315 315 316 316 315 314 313 314 313 313 313 315 314 313 312 313 312 311 312 313 316 317 317 318 318 317 318 318 319 319 318 318 318
301 302 302 305 308 312 315 317 318 318 318 318 316 316 318 320 321 322 322 320 318 317 313 314 314 314 314 314 314 314 314 315 315 314 314 313 314 314 313 313 313 311 310 311 312 313 313 314 314 314 313 312 312 312 312 313 314 314 313 312 312 311 313 315 314 314 315 314 313 314 313 312 311 313 315 316 317 317 317 318 318 319 318 319 319 317 318 319
301 302 302 304 307 308 310 315 319 319 318 318 317 317 319 320 320 319 318 317 318 315 313 315 314 313 315 313 313 315 313 314 314 314 314 313 314 314 313 313 314 312 312 312 312 312 313 315 314 314 313 313 312 310 309 310 312 313 311 310 311 312 316 318 316 316 317 315 314 314 314 313 311 313 316 317 316 317 318 317 319 319 320 319 318 317 319 320
302 301 301 303 307 308 308 314 319 320 318 319 319 318 318 319 320 318 316 316 316 314 313 315 314 313 315 313 314 313 313 314 314 314 314 313 314 314 313 313 314 313 314 313 312 312 312 313 314 314 314 313 312 311 311 311 312 313 313 312 311 312 316 318 316 315 316 315 313 314 314 312 311 313 316 316 316 318 317 317 319 319 319 319 317 316 318 320
301 303 304 305 307 308 307 312 318 320 320 320 318 317 317 319 318 315 315 315 314 315 315 314 314 313 313 313 313 314 314 314 313 314 313 312 313 313 313 314 314 314 313 312 311 311 310 311 313 314 314 313 313 313 313 312 311 313 314 313 311 312 314 315 315 314 314 314 313 313 313 313 314 317 318 316 317 317 316 316 316 317 317 317 317 317 319 321
303 309 315 315 314 313 311 313 317 320 320 319 317 316 316 317 316 314 314 312 312 314 314 313 314 312 311 312 312 313 313 313 312 313 313 312 313 312 313 313 313 313 312 311 311 311 309 309 312 314 313 314 313 312 314 312 310 312 311 310 312 314 314 312 313 314 313 314 313 312 312 313 314 317 316 316 317 315 314 315 314 316 317 316 318 319 320 320
306 312 318 319 316 315 316 317 318 320 320 317 317 317 315 315 315 313 312 312 313 313 313 313 313 312 310 310 312 312 313 312 312 312 311 312 312 312 312 313 314 313 312 311 312 312 311 310 313 313 312 313 313 312 313 312 311 310 309 310 312 313 313 313 312 312 313 315 314 312 311 311 310 313 316 316 317 315 314 314 314 315 317 316 318 320 320 320
309 311 312 313 313 314 317 317 317 319 318 315 315 316 315 314 315 313 312 312 313 313 313 312 312 313 311 310 311 312 312 311 311 311 310 310 310 312 312 313 313 313 313 313 312 313 313 311 312 313 312 313 313 312 311 312 312 310 309 311 311 310 310 311 311 311 313 314 314 311 310 309 307 310 314 316 316 316 315 314 314 315 316 317 318 320 320 321
311 312 310 310 311 315 315 316 317 317 316 314 313 314 313 313 313 313 312 312 311 311 311 311 312 313 312 312 312 313 313 312 311 311 309 309 312 313 312 312 313 313 313 313 313 313 313 312 312 313 312 312 312 312 310 311 312 311 311 311 310 309 310 310 311 312 312 313 313 312 311 309 311 314 315 315 316 316 316 315 315 314 315 316 318 320 320 322
314 314 313 312 312 314 314 316 317 315 314 314 313 313 312 312 312 311 312 312 311 311 310 310 311 311 313 313 312 313 314 312 312 311 309 309 312 314 313 312 313 313 313 313 313 313 312 313 314 313 312 312 310 311 311 310 311 310 310 309 309 310 310 310 310 309 310 311 312 313 311 311 317 320 315 315 318 317 316 316 315 314 315 316 318 320 321 321
312 311 313 313 313 314 315 315 314 313 313 313 313 312 311 311 311 312 312 312 311 311 310 310 311 312 313 313 313 314 313 313 312 312 311 310 311 312 312 313 313 313 313 312 312 313 312 313 313 311 310 309 309 312 312 311 312 311 311 310 311 312 312 313 312 309 309 310 310 312 311 312 319 321 315 316 318 317 315 315 315 314 315 317 319 321 321 321
311 309 312 315 315 315 315 313 311 312 313 313 312 311 312 312 311 311 312 312 311 310 309 310 311 312 313 313 314 313 313 312 312 311 311 311 311 312 312 313 313 311 312 311 311 314 315 313 313 311 311 310 311 312 312 311 312 312 312 312 312 313 312 313 313 311 311 311 311 312 311 314 319 317 315 317 316 316 316 316 315 315 317 319 319 320 320 320
312 311 313 317 316 315 314 311 311 311 312 312 312 311 311 311 311 311 312 311 310 310 309 309 310 311 312 312 313 313 312 312 312 311 311 311 311 312 312 311 312 310 310 309 310 313 314 313 312 312 311 310 310 310 310 311 310 311 311 311 311 311 311 312 312 312 311 310 311 311 312 316 321 319 316 317 315 315 316 316 314 316 318 320 319 319 320 320
312 313 313 314 314 314 313 311 310 310 311 312 311 310 310 310 310 311 311 311 310 310 310 310 311 311 311 312 312 313 312 312 312 311 311 311 310 311 311 310 309 308 309 312 313 313 313 312 312 312 311 310 310 309 309 309 310 310 311 311 312 311 311 313 311 311 311 310 310 312 312 314 320 319 315 314 315 315 315 316 315 317 319 318 318 319 320 320
313 313 311 311 312 312 312 311 310 310 311 312 311 311 310 310 310 311 310 310 310 310 311 311 312 312 312 312 312 312 313 313 312 311 310 310 311 311 311 310 309 309 312 316 316 313 313 313 312 312 313 312 312 310 309 310 310 310 311 311 312 311 312 313 310 310 312 311 311 313 312 313 317 317 316 316 315 314 315 315 315 317 318 317 318 320 320 319
313 313 310 310 311 311 311 309 309 309 310 311 312 312 311 311 311 310 309 310 310 310 311 311 311 312 312 313 312 312 312 312 311 311 310 310 310 310 310 309 309 311 314 315 314 311 311 312 311 311 312 312 311 310 310 310 310 310 310 310 311 311 312 312 311 311 312 313 313 313 313 314 315 315 319 320 318 315 316 316 315 318 319 318 320 321 320 318
313 312 310 311 312 311 311 310 308 308 309 310 311 310 311 311 311 310 310 310 310 309 310 310 310 310 311 312 312 312 312 311 311 310 310 309 309 310 310 309 310 314 314 311 309 308 309 309 310 310 310 310 309 309 309 310 309 308 309 309 310 310 311 312 313 312 313 314 314 314 315 316 314 314 317 318 318 316 316 317 318 319 319 318 319 319 318 317
311 311 311 311 311 311 311 311 310 309 309 310 310 310 310 311 311 311 310 309 310 309 310 310 310 309 310 310 311 312 311 311 312 311 310 309 309 310 310 308 310 313 312 308 308 309 308 308 309 309 309 309 309 309 309 309 309 309 308 308 308 309 310 312 313 312 312 313 314 314 316 317 315 313 314 315 316 316 315 317 320 319 317 318 319 317 315 315
309 310 310 310 311 311 310 310 310 310 310 310 311 310 310 311 311 311 309 310 311 310 309 310 310 308 309 309 309 310 311 312 314 314 314 312 311 310 310 309 309 310 310 308 309 310 310 309 310 309 309 309 308 309 309 308 308 308 308 308 308 308 310 311 311 311 312 313 313 314 317 318 316 313 313 314 315 316 314 315 317 315 315 317 317 316 314 314
308 309 309 310 311 311 308 309 310 309 309 309 310 310 310 310 311 310 309 310 310 310 310 310 310 309 309 308 308 311 312 314 314 316 315 314 313 311 311 310 310 309 309 309 310 311 311 310 310 310 310 309 309 308 308 308 308 307 307 307 307 308 309 310 311 312 313 313 313 315 317 317 315 312 313 314 314 315 314 313 314 314 313 315 315 315 314 313
305 308 309 310 311 309 307 308 308 307 308 309 310 309 309 309 309 309 309 309 308 309 309 310 310 310 310 310 311 311 312 312 312 312 313 312 312 311 310 310 310 309 309 310 310 311 310 309 310 310 310 310 309 308 308 308 307 307 308 308 308 309 310 310 310 312 313 314 314 315 315 314 312 312 312 313 313 313 314 314 315 315 313 313 314 314 314 314
303 306 308 309 310 308 306 307 308 308 309 309 309 308 308 308 307 308 308 308 307 307 307 308 309 309 309 311 312 310 309 310 309 309 309 309 309 309 309 309 308 309 309 309 310 310 309 310 310 310 310 309 308 308 308 308 308 308 309 309 310 310 310 310 310 312 313 314 313 312 312 311 312 313 312 312 312 313 313 314 314 315 315 313 314 314 314 314
Wind_Speed
12 12 11 11 11 11 11 11 10 11 12 12 12 11 11 11 11 11 11 11 11 11 11 11 11 12 12 14 15 16 17 17 17 16 17 17 15 11 5 6 9 11 11 12 13 13 13 14 14 14 12 9 8 7 10 10 7 6 5 7 7 8 9 8 11 4 3 2 5 9 5 4 7 6 2 1 6 9 12 2 15 16 16 17 19 24 23 23
12 11 11 11 11 11 11 11 11 11 11 11 12 12 12 11 12 11 11 11 11 11 11 11 11 12 13 13 15 15 16 18 18 19 22 20 16 15 12 8 8 10 13 14 15 15 13 11 12 12 10 7 7 8 9 8 8 7 6 7 8 9 10 12 11 4 4 6 10 7 1 3 5 6 2 1 6 7 10 5 16 19 18 20 21 21 20 20
12 12 11 11 12 11 11 11 11 11 11 11 11 12 12 11 12 11 11 11 11 11 11 11 11 12 13 13 14 13 15 17 16 16 20 19 17 16 14 13 11 11 16 16 15 14 12 11 12 11 9 8 7 9 10 7 7 8 7 7 9 11 13 13 8 6 6 8 9 7 4 6 7 4 2 3 8 8 9 8 13 18 18 19 19 19 19 18
12 12 12 12 12 12 12 11 11 10 10 11 11 11 12 12 11 11 11 11 11 11 11 11 11 12 12 13 12 12 14 14 8 2 6 13 15 15 14 15 13 14 18 17 15 13 13 12 11 10 9 8 8 10 10 7 6 7 8 9 12 12 11 9 5 4 6 5 7 9 6 9 8 2 4 6 8 8 9 11 12 18 19 19 18 17 17 16
13 13 13 13 12 12 12 12 12 11 11 11 11 11 11 11 11 11 11 10 11 11 11 11 11 11 13 12 10 11 11 6 2 7 8 10 11 11 13 13 13 15 17 16 15 13 13 13 10 9 8 8 9 9 9 10 8 7 9 11 13 14 11 8 4 1 2 4 6 8 9 9 6 4 7 6 7 5 2 3 9 18 19 18 17 16 15 14
13 13 13 13 13 13 12 12 12 12 12 11 11 11 10 11 11 11 10 10 11 10 10 10 10 11 12 10 9 9 8 2 3 5 7 7 8 9 10 12 13 15 16 15 14 13 12 11 9 9 8 9 11 11 10 11 10 8 9 11 12 13 11 7 5 3 3 5 8 8 8 6 7 9 5 4 7 1 16 18 14 20 20 18 16 15 15 14
14 13 13 13 13 13 13 12 12 12 13 12 11 11 11 11 11 10 10 10 10 10 10 10 10 11 10 10 8 7 8 7 2 5 4 4 6 8 10 12 13 14 14 14 14 11 9 10 11 9 8 9 11 13 11 11 13 11 9 11 12 11 9 7 5 2 1 7 8 7 8 7 10 7 3 6 5 8 20 23 21 21 19 17 15 14 14 14
14 14 14 13 13 13 12 12 12 12 12 12 12 11 11 10 10 10 10 10 9 9 9 9 9 9 9 10 8 6 9 6 3 5 2 4 6 9 12 12 13 13 13 14 14 10 9 11 12 9 9 10 10 12 11 12 13 10 9 12 12 8 6 7 6 5 6 8 7 7 9 10 9 3 3 6 5 9 16 18 16 17 17 17 16 14 13 13
14 14 14 14 13 13 13 12 12 12 12 12 11 11 11 10 11 10 9 10 9 9 8 8 8 7 7 7 8 6 3 3 7 4 4 7 9 12 13 11 14 14 13 15 15 12 9 9 12 11 10 10 10 11 10 8 6 7 10 12 13 9 6 7 8 9 9 8 6 9 11 10 5 2 3 3 6 7 12 14 12 15 16 15 15 14 13 13
14 14 14 14 13 13 13 13 13 12 12 12 11 11 11 10 11 10 10 10 8 8 8 8 6 5 7 8 8 5 3 7 7 7 7 10 11 13 12 12 15 15 14 14 14 13 10 9 10 9 9 11 10 9 7 7 5 6 9 12 13 10 6 8 11 9 8 8 7 9 12 8 4 4 3 3 4 8 10 13 13 15 15 14 14 12 12 13
14 14 14 14 13 13 13 13 12 12 12 12 12 12 11 11 11 10 10 9 8 8 7 7 5 5 8 8 7 4 2 4 7 9 9 11 12 12 12 13 14 14 14 10 10 12 11 10 8 6 5 6 8 8 9 10 9 7 7 9 10 9 9 11 11 7 8 9 7 11 11 4 5 7 6 6 7 10 11 14 15 17 16 14 15 12 8 10
14 14 14 14 13 13 13 13 12 12 12 12 13 12 11 11 10 10 10 9 9 8 7 7 4 4 8 8 9 8 1 3 6 8 10 11 12 12 11 12 13 15 13 8 9 12 11 8 8 8 5 3 7 7 6 10 10 7 7 8 10 11 12 13 11 8 9 8 8 12 10 5 7 7 9 10 8 10 12 12 13 14 16 15 13 10 4 7
14 14 14 14 13 13 13 13 12 13 13 13 13 13 12 11 10 10 9 9 8 7 8 5 3 5 8 6 7 7 1 2 6 8 10 11 11 11 9 10 12 13 12 7 8 8 8 7 8 12 8 6 8 3 2 7 6 8 9 9 10 10 11 14 13 11 12 9 10 10 7 6 9 6 9 9 8 9 8 9 9 9 14 15 14 12 7 10
15 14 14 13 13 13 13 12 13 13 13 13 13 13 13 12 11 10 9 8 7 6 6 4 2 4 6 6 3 6 4 3 6 9 11 11 12 10 8 9 9 11 9 8 5 2 5 8 9 10 8 10 9 5 4 7 5 8 10 8 7 8 10 13 12 12 12 8 10 8 7 5 7 10 9 6 8 8 6 8 9 6 7 8 11 15 13 11
15 14 13 13 12 12 12 12 12 12 13 13 13 13 14 13 11 9 8 8 6 4 5 4 4 4 6 8 5 7 7 5 7 10 12 13 12 9 9 10 9 9 8 6 6 2 6 8 8 8 7 10 9 6 7 7 6 7 7 7 7 9 8 11 12 12 10 8 9 8 7 6 7 11 10 6 8 9 7 9 8 7 8 7 7 12 11 10
15 14 13 12 12 12 12 11 11 12 13 12 12 13 13 12 10 8 8 6 4 2 2 5 9 9 6 3 6 10 8 9 10 11 12 14 13 10 10 10 9 8 7 7 5 4 7 8 7 8 8 8 8 8 7 6 7 7 6 7 7 9 5 9 10 12 10 9 12 11 8 7 7 11 10 6 8 9 8 8 9 11 10 9 8 6 6 8
15 14 12 12 11 11 11 10 10 11 12 12 13 12 10 9 8 6 6 3 2 3 6 8 7 9 6 4 4 8 10 10 10 12 13 13 12 10 11 9 9 9 7 8 6 6 7 7 6 6 7 7 7 7 6 7 7 6 7 6 8 10 5 8 10 11 11 11 10 11 11 7 7 11 9 8 7 8 8 9 9 15 13 10 6 7 6 3
15 14 12 11 10 10 10 10 10 10 11 11 9 8 7 6 6 5 4 1 0 5 10 12 9 5 7 9 9 10 11 10 11 12 12 11 10 7 9 10 8 8 8 7 8 8 6 6 6 6 6 6 6 7 7 6 4 3 5 6 7 10 7 7 7 10 10 11 8 9 11 9 9 10 10 8 6 9 8 9 5 13 17 11 8 9 4 3
15 13 11 10 10 10 9 9 10 10 10 9 6 6 6 4 4 4 7 6 3 5 5 6 9 5 1 8 13 11 11 10 10 11 12 10 9 8 10 10 7 9 9 6 8 9 6 5 6 6 6 7 9 9 5 6 8 11 10 6 7 7 6 7 3 8 9 9 10 9 10 11 8 10 10 8 6 9 8 7 4 7 15 14 10 11 10 9
15 13 11 10 10 10 9 9 9 9 9 6 4 6 5 3 2 3 8 10 9 10 9 4 14 12 4 7 9 7 10 9 9 10 12 11 9 9 10 9 8 8 8 7 8 7 6 6 6 8 5 3 6 4 3 8 10 12 12 5 6 7 6 7 4 9 5 5 8 9 11 12 8 9 9 10 11 8 7 7 5 6 8 13 14 17 18 15
15 13 11 10 10 10 9 9 9 8 8 4 3 6 5 4 4 1 1 9 15 17 18 12 14 16 8 2 9 9 8 8 9 10 12 12 10 8 8 8 9 7 8 12 6 4 4 6 8 9 2 3 4 6 5 7 9 9 10 7 4 6 6 5 4 10 7 3 5 8 12 11 9 12 9 8 7 4 5 9 5 8 7 8 10 16 19 13
16 12 11 10 9 10 9 10 9 8 7 3 4 10 7 8 7 6 6 8 12 16 19 16 14 13 8 4 6 8 9 9 10 12 12 12 11 9 8 9 10 8 8 10 6 3 5 8 13 11 3 3 2 6 6 7 8 8 7 6 5 7 5 2 5 6 8 4 6 9 11 10 10 12 8 4 6 4 6 10 8 9 8 7 7 10 16 12
18 13 11 9 9 9 8 9 9 8 7 7 8 11 9 9 9 10 8 7 9 12 16 15 13 11 10 11 7 8 11 10 10 12 14 12 11 10 8 8 9 9 10 10 7 6 6 6 9 6 5 2 4 4 6 6 6 7 6 6 6 7 8 1 5 2 3 3 5 9 8 9 7 7 7 8 10 7 8 12 12 9 7 8 8 7 16 15
20 15 11 9 9 8 8 8 9 10 10 11 14 14 10 8 8 10 7 6 8 9 12 14 12 11 12 11 10 12 12 9 10 12 16 12 10 9 9 10 9 9 10 9 9 10 11 1 6 6 5 1 5 4 5 5 5 7 8 9 9 8 9 5 4 3 4 3 5 10 7 6 7 6 7 12 11 8 9 14 10 7 7 7 6 4 14 16
21 17 12 9 7 7 8 9 9 11 10 11 16 15 9 6 5 8 6 4 6 7 10 12 10 11 14 11 9 12 11 10 11 10 18 13 11 9 8 8 8 9 10 11 11 10 8 1 6 5 3 4 5 5 7 6 6 8 9 11 12 12 11 7 2 5 3 5 6 7 7 6 8 10 11 12 8 9 11 11 8 8 9 8 7 5 9 15
22 19 13 9 6 6 7 5 6 10 10 11 10 5 5 5 5 7 5 4 5 5 8 10 8 7 11 11 9 9 10 10 8 10 18 13 13 9 6 5 6 8 9 9 7 6 3 1 1 2 3 5 7 7 8 7 6 6 4 6 11 12 12 9 4 3 4 6 6 8 7 6 7 9 12 13 12 12 10 9 9 10 10 9 8 5 5 9
23 21 16 9 6 4 3 5 10 13 9 4 3 4 6 5 6 7 4 3 3 5 8 8 7 6 8 11 11 9 5 5 7 14 14 10 10 7 8 8 6 7 8 5 2 3 5 4 1 4 4 6 8 7 9 9 8 4 2 6 10 9 11 11 8 6 6 6 5 8 8 7 6 8 9 10 11 12 10 10 10 10 11 11 8 7 7 7
23 22 18 10 6 4 6 9 13 13 11 9 8 7 7 7 6 5 3 2 2 5 7 5 4 5 10 10 12 12 4 5 9 10 9 9 9 8 9 12 11 8 8 7 3 1 3 5 5 6 7 6 7 8 10 11 9 5 3 7 9 9 11 11 8 8 7 7 6 7 9 7 5 8 9 8 9 9 9 10 10 10 10 10 9 10 10 8
22 22 20 12 6 7 9 11 11 13 14 13 10 8 7 7 6 3 2 2 2 3 3 4 4 6 10 10 12 15 7 6 6 6 9 11 11 10 9 9 13 12 6 7 6 3 4 6 5 5 7 7 9 12 12 10 8 5 5 6 8 9 11 9 8 7 6 7 8 8 9 6 6 7 7 8 9 8 8 8 9 8 7 3 2 1 1 2
21 21 21 12 5 6 8 12 13 11 11 11 9 10 8 6 4 3 4 3 3 4 4 4 6 10 11 9 11 14 11 8 5 6 8 9 11 12 9 9 10 11 6 5 8 10 7 4 3 5 8 8 9 12 9 5 5 4 3 6 8 9 9 8 7 6 6 7 9 12 12 8 7 6 6 6 5 7 7 8 8 6 3 1 3 3 3 4
20 20 20 13 5 6 6 7 7 6 5 7 9 9 7 5 3 4 5 1 2 6 8 6 9 12 13 12 10 11 13 11 8 8 8 7 9 10 8 9 7 6 6 5 8 12 9 7 6 7 9 8 9 9 6 4 6 5 4 6 7 6 7 6 5 5 6 7 8 11 13 11 8 5 5 4 6 7 6 7 7 8 6 3 4 2 1 2
19 18 18 15 8 10 10 8 8 9 6 8 8 6 5 4 5 6 5 2 1 5 7 8 11 11 14 15 11 11 12 11 10 10 9 8 8 8 8 7 5 4 7 6 6 8 8 7 8 9 9 9 9 7 6 7 7 6 6 6 6 5 4 5 5 5 6 7 6 6 8 9 7 6 6 1 8 8 4 4 8 9 8 7 6 3 3 3
19 18 17 14 11 13 15 12 11 10 7 7 7 5 4 5 6 7 7 4 2 5 6 8 10 10 13 13 12 11 10 10 11 11 10 10 8 8 10 11 10 8 5 4 5 5 5 8 10 8 9 9 8 6 6 5 6 6 6 6 6 5 5 6 6 6 6 6 6 5 5 5 5 6 7 4 7 8 6 7 8 8 7 7 5 4 5 4
19 17 16 15 14 15 16 13 10 8 8 7 5 4 6 7 7 8 8 6 5 4 6 8 9 10 12 12 10 11 9 9 10 10 10 10 8 6 9 12 12 8 4 4 5 5 6 7 8 9 6 9 8 8 8 6 5 7 6 6 6 4 5 6 5 5 5 4 6 6 3 3 3 2 3 5 7 7 6 7 7 7 7 6 5 3 5 6
19 16 15 14 15 16 16 15 12 8 7 6 5 6 8 7 6 8 8 7 7 6 7 9 9 10 11 11 10 11 10 8 9 11 9 9 8 7 8 9 10 7 6 6 3 4 9 6 6 8 3 6 6 9 7 8 6 4 4 6 6 4 5 5 5 6 5 4 5 5 4 3 0 2 1 6 9 7 6 7 8 8 7 7 5 4 5 7
18 13 11 11 14 15 14 15 12 9 7 5 6 7 7 7 7 8 6 7 7 6 7 9 8 9 8 7 9 11 10 6 7 9 8 9 11 10 9 7 7 9 7 5 2 2 7 4 5 9 5 5 9 8 3 4 3 1 3 5 4 4 5 5 6 6 5 6 5 4 5 5 2 3 5 7 8 9 8 9 9 9 8 6 5 4 6 7
17 12 10 13 16 15 13 13 12 11 7 5 7 7 7 8 10 10 8 7 7 4 7 7 5 7 8 6 7 9 9 7 8 8 6 9 10 9 11 8 5 7 5 4 3 1 3 4 3 5 6 9 9 4 4 5 5 4 4 2 2 5 6 5 5 5 5 6 5 4 7 8 6 5 7 9 9 9 9 9 10 10 8 6 5 5 7 8
15 12 11 17 19 13 13 12 12 10 6 6 8 9 9 10 11 13 11 6 5 6 8 7 5 6 8 6 7 9 8 6 8 9 7 8 5 4 7 7 7 7 5 4 3 1 2 5 6 5 8 9 7 4 6 8 8 9 8 6 4 4 5 4 4 5 5 6 5 7 9 8 6 3 7 11 10 9 10 11 11 11 10 7 7 7 8 8
12 8 9 17 16 11 12 11 9 8 6 7 9 8 9 11 13 15 12 6 6 8 8 8 6 6 7 8 7 8 10 9 8 8 8 7 4 2 4 2 6 6 5 5 4 3 3 4 5 7 11 9 4 4 4 5 8 11 9 8 6 4 5 5 4 4 5 6 5 7 8 5 3 2 4 9 9 9 9 8 8 9 10 8 8 7 7 7
9 6 6 9 12 13 11 9 8 7 7 8 8 8 10 11 13 15 10 3 4 8 8 8 9 7 8 10 9 8 10 10 9 9 8 5 4 2 5 3 4 5 3 4 6 4 4 3 3 7 10 8 4 3 5 6 6 7 7 7 6 5 5 6 5 5 6 6 4 6 6 2 1 2 2 6 8 9 7 6 6 7 8 8 9 7 7 7
7 6 4 7 12 13 10 7 7 6 7 8 9 11 11 9 10 12 7 2 4 9 10 9 10 8 7 9 9 8 8 8 10 8 7 6 5 5 7 7 7 6 4 3 5 3 2 3 5 6 7 7 6 6 9 9 7 6 5 5 5 5 4 5 7 6 6 6 5 6 6 1 1 1 1 3 5 5 7 8 7 6 8 9 9 8 7 7
6 5 4 10 12 13 9 5 7 6 7 8 10 12 10 5 8 11 8 6 7 8 10 11 10 8 8 7 8 9 8 7 9 8 7 8 3 2 4 6 5 3 1 4 3 2 2 2 5 7 6 8 10 11 13 11 7 7 7 7 7 6 3 4 7 5 5 6 5 7 5 1 1 1 2 2 1 1 5 6 6 6 8 9 9 9 7 8
6 4 5 12 13 12 7 6 7 7 7 10 12 14 12 7 8 10 11 11 8 7 8 8 7 8 8 8 7 9 8 7 9 9 9 6 5 9 7 6 4 3 1 5 4 4 2 2 5 7 7 9 11 13 15 13 7 7 8 7 8 9 7 7 7 5 5 7 6 7 5 1 3 4 3 0 3 3 6 7 7 6 9 8 8 9 8 7
6 6 2 10 14 11 7 7 7 7 8 11 13 14 12 10 9 10 11 12 9 7 8 7 6 7 8 8 8 9 7 6 8 9 11 6 6 10 8 7 2 3 3 2 3 3 1 2 4 6 6 7 8 8 9 9 7 6 6 5 7 11 11 10 8 6 6 8 9 8 6 2 1 2 1 2 3 3 6 8 6 6 9 8 7 8 7 7
6 6 5 7 12 9 7 7 8 8 8 10 12 12 11 10 9 9 11 10 8 8 7 6 7 8 7 8 9 8 8 8 7 7 11 7 6 7 5 6 2 1 6 9 7 2 3 3 4 6 6 6 6 5 3 3 5 5 4 6 8 11 11 9 7 6 6 8 9 8 7 2 3 2 2 5 6 4 4 7 8 9 9 8 7 8 7 7
5 4 4 4 8 6 6 7 9 9 7 8 8 7 10 10 9 8 8 9 10 8 6 6 8 8 7 8 9 8 9 10 9 7 9 8 5 6 5 5 4 6 11 10 6 2 3 4 6 8 8 8 9 9 10 8 8 8 8 10 11 9 10 9 6 6 6 7 7 8 8 6 1 1 2 5 7 8 4 3 3 7 9 6 5 6 6 6
4 4 4 3 2 4 5 6 9 8 8 7 5 6 9 11 10 7 4 6 10 8 6 7 9 7 7 8 8 8 9 11 11 10 10 11 7 5 8 5 4 9 10 4 0 1 3 5 8 11 12 14 14 15 15 13 13 13 11 13 14 11 10 9 6 8 8 7 8 8 8 9 8 7 4 4 5 7 6 5 5 1 6 6 5 6 8 8
4 4 5 6 4 5 4 5 6 6 7 7 6 7 9 9 10 7 6 4 9 7 5 6 9 9 9 9 7 6 9 10 11 10 10 11 7 4 8 5 4 10 6 3 5 4 4 6 8 11 14 15 16 16 15 14 14 14 13 15 15 14 13 11 10 11 10 8 10 10 9 10 10 11 11 6 4 2 6 3 3 4 4 7 9 10 10 10
6 4 6 8 6 5 4 7 9 8 7 4 3 7 8 8 9 9 5 3 6 7 6 6 8 9 10 12 10 6 5 6 6 7 7 8 6 2 3 5 5 8 6 5 5 5 4 6 7 11 14 15 15 15 15 15 14 15 16 17 16 15 15 15 14 14 13 12 14 14 11 10 9 9 12 11 4 3 5 4 4 6 4 5 9 10 9 9
7 5 7 8 7 6 5 6 7 6 5 2 1 5 7 7 8 8 6 4 4 6 8 9 9 9 12 14 10 3 5 5 5 6 7 6 4 4 6 4 3 4 6 5 4 4 4 4 6 7 10 12 13 14 15 16 16 16 18 17 16 15 15 14 14 12 11 12 13 12 10 7 7 8 9 10 9 7 8 7 8 9 8 8 8 8 9 11
12 11 9 7 6 6 5 4 5 5 4 3 3 4 4 6 7 4 3 4 4 4 5 8 10 10 12 11 6 8 10 8 6 6 6 6 4 2 4 4 4 6 6 6 5 3 4 3 5 6 7 8 10 13 15 16 17 17 17 16 16 15 12 12 13 11 10 11 10 9 8 6 6 9 8 9 11 11 10 9 9 10 9 8 9 11 11 10
16 14 11 7 6 6 5 3 4 4 4 5 6 5 4 5 6 5 3 3 5 5 3 7 10 9 6 9 11 10 9 8 7 7 6 6 6 5 5 6 7 7 6 5 5 3 4 5 5 6 7 8 11 13 13 13 14 12 10 9 11 13 13 13 12 10 9 9 7 6 6 6 9 9 8 8 10 12 12 11 11 11 8 6 7 9 10 8
Wind_Direction
322 322 321 320 318 316 316 316 317 316 315 315 313 311 309 308 307 305 304 303 304 303 305 308 302 305 306 307 308 307 315 309 301 283 251 248 247 241 252 211 213 237 225 208 222 226 212 215 227 226 230 231 230 239 243 236 231 241 231 243 254 249 256 253 252 281 33 273 61 68 60 324 297 298 296 204 251 259 273 265 88 80 82 90 111 124 131 136
322 322 320 319 318 316 315 313 312 312 312 312 311 311 310 307 306 304 304 303 301 302 303 303 301 305 306 307 308 310 315 303 287 275 257 250 245 245 254 239 230 231 213 212 222 222 214 213 217 219 225 231 226 224 234 224 209 234 242 235 245 251 258 260 265 350 27 319 353 20 30 302 290 301 323 269 263 247 253 196 107 96 96 98 107 116 125 132
321 320 319 316 315 314 312 311 308 306 308 310 310 309 308 304 303 301 299 298 297 301 300 301 303 302 305 307 309 316 315 300 282 268 253 239 231 238 246 241 237 219 207 213 220 219 224 223 214 215 225 232 231 223 222 208 198 221 241 246 243 246 259 272 301 355 322 316 326 315 334 307 277 284 307 266 265 244 236 204 133 117 114 108 113 123 131 141
321 318 317 315 313 312 311 311 307 305 307 308 307 306 309 306 303 299 296 294 295 297 298 301 302 302 307 306 313 326 309 292 283 253 203 208 216 227 235 236 230 214 210 222 233 233 233 237 229 221 227 236 234 230 226 208 201 216 224 244 252 257 276 296 342 347 299 318 312 308 317 288 280 310 286 265 260 241 226 221 175 131 124 122 124 135 141 150
319 316 316 314 312 312 311 311 308 306 307 306 304 303 307 307 304 301 297 297 295 295 299 300 301 306 306 307 323 323 299 281 93 101 136 181 204 218 225 222 215 211 214 228 245 248 237 239 244 231 228 242 239 229 226 218 217 230 234 244 263 280 296 314 342 19 352 339 301 287 274 285 312 282 252 249 256 258 357 277 170 134 128 132 133 140 145 153
318 317 316 313 311 311 309 308 307 306 306 305 303 303 305 305 302 302 298 296 295 295 298 300 304 306 306 315 323 303 282 300 65 114 152 185 206 216 212 204 202 206 214 227 241 245 236 233 240 232 225 237 245 238 223 221 226 238 248 249 261 274 277 296 332 52 58 291 267 260 270 307 294 262 232 226 249 85 54 46 85 117 126 130 137 146 147 157
319 318 315 314 310 309 308 307 307 306 306 305 304 305 304 303 302 302 299 296 295 293 292 299 304 305 319 323 301 266 253 280 3 115 161 198 209 207 193 190 195 203 215 229 236 234 222 223 227 224 227 232 244 246 230 226 231 232 251 257 257 263 264 273 298 332 254 260 259 264 280 279 263 258 172 208 228 95 79 73 84 103 121 131 141 148 149 165
319 317 313 313 310 308 308 307 307 306 305 304 303 303 300 301 300 298 300 298 293 289 289 299 303 313 339 329 296 251 240 256 111 119 174 180 177 173 173 181 191 201 214 230 238 230 214 221 228 223 228 231 237 243 236 235 232 224 244 265 269 270 272 272 278 277 257 253 251 256 263 254 254 261 198 198 154 114 104 105 108 116 130 137 146 153 159 172
318 315 312 311 311 309 308 306 305 304 303 302 302 301 297 295 295 296 298 295 292 291 292 297 301 321 341 316 291 282 253 111 113 138 148 145 153 159 167 177 188 200 214 230 236 228 218 220 226 226 235 246 254 253 241 231 228 230 241 251 258 252 246 258 256 245 242 244 233 241 249 242 238 246 222 146 129 153 133 131 137 136 140 144 151 157 164 173
317 314 313 312 311 309 307 305 304 304 302 300 300 299 295 291 291 292 291 293 292 290 291 292 306 333 322 291 274 286 87 107 126 142 142 143 151 162 179 185 185 203 222 226 227 226 226 231 234 236 250 262 273 274 251 222 222 255 256 248 253 260 256 252 249 234 228 236 227 240 245 224 198 224 223 123 154 198 167 142 143 152 153 150 154 161 170 171
316 314 313 312 310 308 305 303 304 304 302 301 300 297 295 291 290 288 286 288 285 288 293 291 309 318 298 288 273 284 83 136 147 145 153 150 157 173 191 198 191 209 228 223 225 232 233 250 270 257 253 271 268 261 245 240 247 260 272 266 262 266 262 255 251 235 235 232 215 245 248 186 187 216 192 179 193 208 188 146 154 174 152 145 161 164 174 166
316 313 313 312 309 307 303 302 303 302 301 302 301 299 297 293 289 285 282 283 282 286 290 289 312 305 290 283 254 256 304 180 167 158 167 162 173 186 196 209 204 215 228 215 220 234 242 277 294 250 243 309 267 258 236 232 249 259 258 265 260 251 243 242 238 223 239 225 192 240 251 181 214 213 159 175 201 206 190 158 175 182 141 147 166 143 164 188
316 314 313 310 308 305 303 302 300 299 301 302 302 302 300 296 288 282 280 279 280 279 283 294 317 284 283 281 235 220 229 175 165 168 178 180 193 201 215 221 210 226 247 248 227 217 234 271 278 258 269 278 260 329 337 224 239 254 241 248 255 252 232 220 219 214 230 215 177 225 251 197 209 182 138 163 202 206 181 158 188 185 144 156 158 134 175 203
317 314 312 310 307 303 302 301 299 299 301 302 303 301 300 299 291 284 277 273 274 273 284 305 308 270 262 269 231 174 190 182 167 184 186 191 203 204 217 221 217 237 254 276 282 191 227 261 266 269 273 264 273 344 300 234 239 244 237 241 239 261 239 199 193 206 218 186 159 217 255 224 191 150 145 176 204 214 189 170 191 179 125 129 146 151 175 193
318 317 314 309 304 302 301 300 298 300 301 302 303 303 301 301 295 283 274 273 273 278 300 290 242 239 264 262 222 164 184 191 185 190 183 194 208 196 195 203 214 232 225 249 287 236 235 255 254 257 248 244 264 286 253 225 228 231 234 232 218 251 240 167 169 198 205 163 160 225 256 242 202 148 148 196 215 219 208 189 183 147 104 90 144 159 165 177
321 319 314 307 304 302 300 298 301 302 301 302 302 302 301 301 299 287 278 273 268 278 290 260 223 219 278 308 152 157 187 202 194 185 183 199 202 180 179 190 198 209 206 222 258 242 231 243 246 257 264 246 232 242 248 233 221 214 231 238 227 243 203 143 175 191 200 190 179 211 248 248 195 149 146 184 220 221 220 209 170 137 135 155 168 143 119 154
324 320 314 308 305 302 299 297 299 299 299 303 304 304 308 310 307 294 281 262 265 249 231 258 253 220 254 321 150 176 201 200 182 178 188 207 211 179 168 190 198 192 200 212 224 232 226 233 243 247 256 251 239 238 238 237 223 199 218 233 241 245 194 151 179 179 204 220 192 194 237 254 125 131 162 173 223 228 221 234 179 141 152 171 140 93 68 77
328 321 315 311 307 304 301 297 295 296 299 305 309 314 320 318 316 306 273 211 240 244 239 257 273 257 245 244 227 203 197 188 173 182 190 205 232 209 179 200 199 185 205 215 211 222 220 217 235 241 231 227 237 240 234 245 280 310 255 222 239 246 216 199 182 166 197 220 214 199 224 235 137 150 192 172 239 252 223 244 215 150 150 146 103 99 103 66
331 324 320 316 312 310 306 301 297 296 302 308 321 328 320 306 310 281 229 207 187 217 233 204 203 250 326 193 212 200 179 174 172 190 193 193 222 227 205 211 212 205 215 211 197 207 216 216 229 237 230 227 225 222 254 320 344 334 301 237 237 255 230 241 185 147 186 202 213 220 222 227 188 177 187 164 212 244 237 239 236 176 148 142 141 139 156 142
336 330 327 322 318 316 310 305 299 300 306 304 308 305 290 275 274 215 201 210 220 239 270 217 188 225 266 158 175 154 144 168 186 197 196 191 205 220 215 218 228 223 227 235 205 190 221 235 236 237 233 261 260 246 341 335 333 323 311 273 231 242 223 234 179 144 186 224 209 232 237 227 224 213 187 174 195 202 241 246 221 230 172 160 171 155 158 159
340 336 333 328 324 318 311 305 300 307 308 292 266 261 273 354 351 2 205 228 230 236 257 259 210 223 263 136 145 147 156 184 199 206 195 188 203 213 201 210 229 218 222 243 223 150 221 250 251 245 211 56 334 352 356 318 316 312 311 311 275 250 223 219 169 143 154 242 241 254 255 229 222 241 222 182 199 190 243 261 240 236 225 197 189 153 152 161
345 341 336 333 329 323 318 313 309 311 306 278 238 248 277 0 1 332 323 271 251 234 235 247 236 231 255 247 174 178 200 191 196 208 189 182 205 211 184 192 225 224 214 231 232 188 214 240 250 241 125 90 333 350 325 304 306 294 288 287 286 275 252 88 75 134 150 174 251 257 258 240 208 230 254 207 210 206 223 259 259 238 239 236 226 157 151 160
350 343 338 337 332 329 327 320 316 305 281 248 241 257 291 342 346 331 315 281 275 243 221 224 237 236 228 229 209 204 223 204 196 199 180 185 210 217 215 211 226 236 223 214 212 240 239 225 238 222 91 17 300 315 295 298 282 270 276 267 262 260 254 171 109 202 216 162 249 269 273 276 243 222 268 249 216 192 205 241 251 241 234 234 240 165 152 159
355 345 338 336 331 330 330 321 306 285 264 248 254 265 294 329 336 336 321 271 272 253 224 213 220 228 221 218 198 207 230 220 209 187 167 192 218 210 228 240 243 249 245 224 203 232 261 263 108 109 95 278 287 287 266 275 265 248 245 253 262 259 262 268 136 151 278 230 243 277 282 282 262 214 238 248 216 181 215 232 236 246 243 239 248 161 150 157
359 350 335 329 328 327 324 311 285 271 254 249 258 258 278 324 342 335 326 274 258 238 220 208 208 222 214 197 184 205 224 234 242 184 158 193 226 207 217 236 246 248 244 243 226 224 255 349 104 130 165 212 241 256 237 232 257 252 232 236 259 273 283 294 120 130 245 248 218 244 262 253 235 211 221 245 216 187 225 229 216 238 247 243 235 196 164 155
358 353 338 320 315 327 322 302 293 289 262 249 258 266 301 329 358 332 303 263 257 203 183 187 183 199 195 176 178 213 226 238 248 151 153 198 229 228 240 222 228 253 261 269 250 222 213 192 237 255 246 241 241 249 245 235 249 263 266 259 256 266 282 278 238 188 229 249 209 201 235 256 239 224 221 228 209 190 215 230 219 228 233 240 237 218 194 152
353 353 345 315 292 321 300 300 322 310 291 296 331 337 328 345 2 326 281 263 259 180 159 166 161 169 181 171 181 211 226 214 183 147 153 197 215 229 252 235 224 234 252 285 286 249 237 181 137 288 262 249 246 246 239 231 239 251 340 291 264 252 262 260 245 238 244 262 237 196 226 260 258 260 257 237 207 182 199 228 230 227 212 212 223 221 219 187
347 348 348 321 277 265 260 289 311 291 288 342 345 311 328 357 340 300 264 281 233 170 161 160 129 167 190 169 185 214 186 147 179 163 161 194 202 214 235 246 266 257 224 228 223 290 260 184 173 234 247 245 248 250 238 225 227 241 248 266 268 259 255 255 246 239 244 260 251 210 222 247 249 258 267 246 215 192 204 219 222 234 223 199 198 209 211 201
344 342 343 329 273 262 264 266 281 279 285 312 323 320 336 335 308 266 251 272 207 165 156 159 136 185 199 169 190 224 212 167 201 175 169 190 204 226 246 257 278 285 247 208 225 251 246 237 233 229 234 242 241 241 240 230 224 247 283 281 277 272 263 261 257 250 246 250 255 242 228 233 247 247 243 226 209 201 215 213 201 222 253 236 162 214 279 314
342 337 337 332 260 263 273 248 257 280 286 293 312 324 316 290 275 242 231 232 214 201 147 152 180 191 202 190 194 221 225 210 196 159 174 192 203 223 260 275 273 282 267 207 245 254 226 211 292 274 246 248 250 250 252 242 228 228 261 269 264 261 257 254 255 258 260 247 247 251 244 242 255 249 247 242 190 175 218 227 188 171 215 307 36 15 337 324
338 333 330 323 259 253 272 247 270 301 287 305 324 314 288 255 243 248 233 246 269 201 157 172 202 186 195 212 202 198 216 221 181 166 195 201 198 208 234 250 250 267 262 232 240 253 235 182 194 240 250 262 269 272 282 261 252 256 246 257 261 247 245 253 252 246 252 252 246 251 250 246 248 248 258 251 149 155 225 228 171 150 161 134 75 34 13 6
332 327 319 312 280 246 250 271 319 330 317 326 320 286 267 250 235 237 238 291 313 193 181 208 212 188 191 213 213 191 208 224 194 189 210 202 197 202 213 224 207 219 248 238 217 236 252 236 213 202 208 240 257 257 253 233 234 254 248 250 260 249 242 250 248 239 241 253 262 273 271 255 241 249 265 223 136 162 204 171 153 157 154 128 108 101 84 60
324 320 308 303 285 249 247 268 301 317 323 316 290 260 253 253 244 240 241 240 194 189 224 232 214 196 194 208 217 198 206 228 208 201 209 210 209 196 214 225 203 205 239 256 248 226 238 261 251 219 183 198 235 245 239 219 200 226 240 238 244 245 249 247 244 246 247 260 267 270 285 275 247 241 242 203 148 169 168 139 146 146 129 127 143 144 123 102
316 308 297 292 281 262 251 251 265 291 305 288 263 243 238 242 253 263 259 247 220 219 256 247 215 205 209 217 214 193 207 232 216 213 207 208 221 196 213 231 215 215 232 224 246 237 237 253 236 225 177 162 211 243 258 271 233 216 235 251 250 238 244 252 252 255 259 278 273 253 246 255 255 254 206 161 139 147 155 148 142 130 126 151 174 146 110 93
312 301 291 281 271 268 257 242 245 264 275 267 250 237 236 238 249 255 257 254 239 227 252 255 232 221 221 223 217 201 215 223 200 219 226 210 225 214 208 231 226 224 233 224 215 212 242 252 201 209 158 125 222 243 254 286 281 214 218 249 254 237 239 258 271 277 283 287 269 243 231 239 224 39 137 149 141 155 172 160 149 151 159 162 154 123 97 86
316 302 280 261 253 258 251 236 231 231 241 254 247 239 237 242 249 249 266 288 275 242 241 247 238 239 234 222 228 214 207 212 198 217 236 221 230 230 207 206 217 215 226 253 265 213 250 261 170 185 170 178 244 259 238 254 286 296 238 244 262 255 246 262 271 270 265 260 257 232 234 240 207 197 201 177 174 189 180 160 162 164 153 134 118 110 105 93
319 299 269 256 251 241 225 219 213 212 231 251 247 249 250 250 255 260 272 297 309 294 261 252 229 239 242 222 238 227 190 190 212 219 235 226 228 231 207 178 181 220 249 294 296 306 290 287 205 191 205 210 222 270 289 259 269 282 262 264 301 257 242 248 266 263 249 254 259 242 240 240 236 214 184 190 209 206 179 170 174 158 137 130 122 109 104 100
308 293 279 266 255 226 199 206 209 214 233 248 245 254 260 261 266 270 274 287 299 279 260 256 223 223 248 235 230 235 213 205 223 224 231 225 213 234 215 164 164 222 282 319 289 315 293 278 277 264 260 238 192 193 261 259 250 254 271 297 298 263 251 242 252 261 256 259 259 256 255 247 253 245 174 188 208 202 185 189 184 162 156 155 133 122 116 113
283 272 276 260 241 195 179 198 210 223 236 241 245 246 251 257 258 262 270 289 298 279 263 264 247 216 244 253 233 228 229 229 233 232 230 212 183 276 281 145 161 212 264 281 268 280 273 274 278 265 269 269 218 192 244 255 235 228 242 270 273 277 279 257 251 262 264 269 270 269 268 256 274 296 165 177 198 201 194 201 196 174 171 156 130 132 127 119
274 265 270 234 194 167 171 194 210 227 232 236 246 248 252 256 254 258 263 257 278 276 265 267 264 237 228 241 241 236 233 228 230 240 243 210 160 215 252 230 197 193 201 270 278 284 280 276 271 272 279 276 252 225 252 275 270 239 225 237 246 257 264 258 255 251 256 265 270 274 279 285 306 314 139 171 198 205 199 206 211 183 162 144 130 137 131 116
286 278 246 173 163 165 170 192 216 228 232 236 243 248 257 271 272 274 282 260 261 277 276 274 277 280 260 243 241 239 237 232 231 242 251 228 201 212 213 200 212 206 173 234 262 269 278 275 265 269 274 266 253 244 254 267 282 288 278 258 257 262 265 270 262 254 264 276 281 278 282 308 234 237 120 170 193 198 198 200 206 181 149 133 126 129 131 125
267 264 186 151 163 174 179 213 226 224 234 239 243 244 247 273 283 276 268 237 231 254 268 267 268 280 279 261 252 248 244 240 236 237 246 244 223 162 172 156 172 199 191 260 275 58 72 279 274 268 263 270 275 274 278 281 270 274 286 281 276 278 269 262 263 268 281 282 286 282 279 342 356 354 56 36 9 172 182 190 205 178 136 124 130 133 132 129
252 261 150 149 168 184 202 240 232 226 239 244 249 252 248 248 262 268 263 251 240 237 249 257 259 260 261 253 248 251 250 246 249 250 247 242 97 96 117 122 133 143 150 277 304 43 73 243 262 271 276 280 278 269 272 276 260 246 259 264 271 273 265 265 273 286 284 270 273 275 263 272 334 346 45 46 282 239 183 188 211 174 129 126 139 137 136 134
285 284 213 168 178 196 223 238 235 237 241 242 246 252 257 256 250 256 263 259 250 245 247 261 273 270 269 266 257 253 251 244 247 254 255 243 112 107 113 106 142 205 126 36 5 33 310 248 240 261 277 277 266 249 245 257 259 246 250 269 284 282 275 270 270 277 280 274 274 277 271 262 9 343 325 257 266 228 166 168 174 138 131 150 159 145 141 141
302 280 264 192 180 201 235 240 249 251 250 258 257 253 258 260 247 249 270 278 271 267 270 275 279 281 284 279 269 258 254 254 247 247 257 246 138 126 131 116 132 313 65 60 48 22 277 283 269 265 269 267 266 266 272 325 316 296 292 290 285 292 298 294 279 263 263 273 274 270 274 287 115 147 303 325 306 271 186 180 171 146 148 169 165 152 148 141
302 272 275 218 183 206 239 243 256 260 267 285 287 270 260 258 250 244 264 284 274 266 275 272 267 276 281 277 278 272 260 260 259 250 253 245 186 154 155 149 129 78 63 53 40 342 283 283 276 270 270 274 280 292 310 328 314 293 291 280 269 276 296 299 285 266 273 285 278 269 278 294 289 178 59 19 323 296 295 281 229 159 157 166 145 143 157 152
294 289 318 332 228 242 246 245 251 249 254 260 260 261 253 251 256 234 206 265 269 258 263 269 264 265 268 266 273 279 274 270 267 257 249 249 241 152 129 148 136 100 83 55 209 243 270 257 258 263 265 270 276 286 295 300 290 282 285 287 285 288 293 290 278 275 288 288 271 280 302 308 313 318 340 43 7 310 306 324 317 184 150 146 148 183 198 177
336 312 356 12 321 278 298 309 297 289 283 270 263 274 264 257 263 242 195 252 282 270 249 260 264 259 261 259 253 261 272 272 271 269 261 256 251 149 137 161 143 117 119 243 220 198 247 250 252 260 262 265 269 274 277 279 280 281 281 279 280 283 282 275 264 265 276 275 272 288 303 294 299 310 306 322 42 316 296 317 289 245 177 159 179 204 207 183
1 338 358 360 322 296 331 331 321 319 313 308 309 293 279 268 271 268 247 251 291 291 277 267 265 261 263 261 252 255 275 281 289 307 311 288 269 245 207 199 160 142 163 236 229 196 223 250 256 264 267 268 268 272 277 277 278 281 280 274 271 273 276 275 272 269 268 266 270 281 288 284 292 306 306 311 325 268 277 292 267 259 240 203 204 211 219 214
355 345 346 338 322 320 336 323 302 295 296 304 309 293 288 280 273 274 272 258 284 311 302 289 288 293 289 273 261 294 21 15 345 346 351 328 292 284 286 275 244 223 217 236 244 186 176 247 273 280 278 275 277 282 282 277 275 277 281 282 282 283 285 286 288 287 279 270 273 284 292 296 306 309 309 316 322 300 275 271 271 262 251 252 244 229 236 247
347 342 338 326 325 322 311 302 290 287 307 360 350 323 322 311 297 298 308 294 309 329 319 314 319 319 312 308 338 27 27 17 358 349 349 331 310 298 296 296 299 283 260 251 247 183 169 247 288 290 277 275 278 277 275 276 276 273 274 282 285 280 276 272 270 273 278 280 287 294 290 295 321 324 324 337 344 335 325 330 326 294 265 262 263 243 234 241
350 343 340 327 312 305 298 325 357 353 352 2 351 331 330 332 325 342 9 338 312 306 321 348 335 313 319 2 23 20 355 343 344 341 334 316 298 288 278 276 283 291 286 270 261 240 234 254 271 270 271 278 277 278 287 289 279 270 273 288 290 283 278 275 273 280 293 297 296 289 291 329 348 340 334 347 353 346 345 353 348 331 324 336 321 279 249 233